Theta_e
320 317 318 320 322 325 327 330 330 332 330 328 328 329 329 332 333 334 336 336 336 335 334 333 330 327 327 329 329 328 326 326 329 327 326 329 332 333 334 338 338 339 340
318 316 317 319 322 324 326 329 330 330 331 330 331 333 333 334 334 336 336 336 335 335 333 329 328 327 327 329 328 327 324 327 329 325 324 319 323 331 334 336 337 335 340
317 317 315 318 322 323 325 328 329 331 332 333 332 332 334 333 332 333 334 335 333 332 333 331 330 330 329 328 328 327 326 324 326 330 325 317 314 322 332 331 331 334 337
316 317 316 317 321 323 326 329 330 331 332 333 332 333 330 329 332 333 333 334 331 332 332 332 330 331 329 328 327 328 328 328 325 328 332 332 329 318 319 330 332 332 336
314 316 316 318 321 324 327 329 331 331 332 333 333 332 332 332 333 332 331 332 333 332 330 331 331 331 329 330 328 328 328 331 329 330 327 330 331 331 325 319 327 331 333
315 316 317 320 321 325 327 328 329 330 331 332 333 335 332 330 329 329 330 330 331 331 331 330 331 331 330 330 329 329 329 329 332 332 331 330 328 328 328 322 324 323 328
315 315 316 318 321 323 326 327 329 328 330 331 332 332 331 330 328 329 329 329 328 327 330 331 331 332 332 331 331 330 330 330 329 331 331 333 330 331 332 326 324 322 326
315 316 317 319 321 324 326 327 328 328 330 331 332 332 332 330 329 329 330 329 328 328 331 331 332 332 332 332 332 331 330 331 332 331 330 330 328 330 333 330 325 320 323
316 316 318 320 322 324 326 327 328 328 330 331 332 331 331 328 329 329 330 328 329 329 330 330 332 332 333 333 333 332 331 331 331 331 331 328 329 331 337 338 331 326 319
315 316 318 320 322 325 327 328 328 328 330 330 331 330 330 329 330 329 328 329 329 330 330 330 332 333 333 333 333 330 331 331 332 329 331 330 333 334 336 333 331 333 323
315 316 318 320 322 325 326 326 326 326 326 328 330 331 330 329 329 329 328 328 329 329 328 329 330 332 332 332 330 330 329 329 330 330 328 328 332 332 332 334 331 327 325
316 317 318 320 321 322 325 324 326 325 326 329 329 331 331 330 329 328 328 328 328 329 328 330 329 330 331 329 328 326 327 327 327 326 326 326 327 328 333 330 331 329 327
316 317 318 319 320 321 323 323 325 326 325 328 329 331 331 330 330 328 328 328 328 329 329 330 330 330 330 331 331 328 328 328 328 328 326 327 326 329 331 330 329 327 326
316 317 317 319 320 321 322 322 323 326 325 326 328 330 330 330 329 328 329 328 329 329 330 331 330 331 330 329 330 328 329 330 329 328 329 328 328 331 330 328 330 330 327
315 316 317 319 319 320 321 321 322 324 325 325 328 329 330 330 329 329 329 329 330 330 331 331 331 332 331 329 329 327 329 330 329 329 329 331 327 322 324 329 326 326 325
316 317 318 319 319 319 319 321 323 323 325 325 328 328 329 328 329 329 329 329 329 331 331 330 330 331 329 305 313 323 327 330 330 330 327 326 321 317 314 315 316 323 325
317 317 318 320 320 320 321 320 324 324 324 324 327 327 328 327 327 328 328 328 329 331 331 330 331 331 329 302 305 313 328 329 328 331 328 327 328 327 329 313 312 312 311
318 319 320 321 321 321 321 322 324 323 322 323 326 326 327 326 327 328 328 329 329 330 330 330 331 330 326 301 303 309 328 328 328 331 330 329 331 328 330 330 329 329 328
321 322 322 323 323 321 322 322 323 323 322 321 326 326 327 326 327 327 328 327 328 328 327 328 329 330 323 301 303 318 326 327 328 332 331 328 330 305 309 330 328 328 325
323 322 323 323 323 323 323 321 321 322 322 321 324 326 328 327 328 329 328 327 328 327 325 327 331 319 322 299 303 320 327 325 326 329 329 311 321 301 306 332 330 327 325
323 323 323 323 323 324 323 321 322 321 324 323 323 325 327 329 330 331 328 326 326 325 326 325 326 329 326 317 300 308 325 326 327 326 328 328 300 300 303 308 327 324 324
321 322 321 322 324 323 323 322 321 324 325 324 322 324 327 328 327 330 328 326 327 324 323 323 324 325 328 310 300 300 310 314 327 327 328 325 300 299 299 309 296 297 310
321 322 322 322 322 322 323 322 323 324 324 323 323 323 325 326 328 328 327 323 325 323 322 321 321 322 324 327 302 300 301 305 326 328 313 298 296 296 302 298 295 298 320
321 322 322 321 320 322 323 325 324 323 323 323 324 323 322 325 327 327 327 325 322 322 320 320 321 321 321 325 327 324 318 303 316 306 311 305 305 300 309 310 309 322 322
321 322 322 321 321 321 322 325 324 322 322 324 323 322 322 323 326 327 326 325 327 321 322 321 321 322 321 321 316 319 325 326 316 314 316 317 319 319 319 319 319 319 320
320 321 322 322 322 321 322 323 323 323 324 323 322 321 320 320 324 325 322 296 302 302 299 302 314 321 307 298 297 298 299 296 296 317 318 318 318 318 318 317 317 317 314
Wind_Speed
18 5 3 9 13 15 17 18 18 15 11 9 7 4 4 4 5 5 6 6 6 7 7 6 5 5 6 6 6 6 7 6 5 5 4 3 4 5 3 1 3 3 3
15 3 4 7 13 15 16 18 17 16 11 8 5 3 3 3 3 2 3 4 5 5 6 6 5 6 5 6 6 7 6 5 5 4 5 4 4 3 3 2 1 2 3
13 4 6 8 9 14 17 17 16 15 11 9 6 3 2 3 3 2 1 2 3 4 6 7 5 5 5 5 6 8 8 6 5 6 2 4 4 6 2 4 2 2 3
7 5 9 11 12 12 15 15 14 13 11 9 7 6 4 3 1 0 0 1 2 3 4 5 5 5 4 5 5 6 6 6 6 4 4 0 4 4 4 3 3 3 2
3 7 10 12 14 15 14 13 13 12 11 9 6 6 4 2 2 2 2 3 2 3 4 5 5 5 5 5 5 7 7 5 5 5 4 3 2 3 4 4 4 4 4
5 8 10 13 15 15 14 13 13 11 10 8 7 6 4 4 3 2 2 2 2 2 4 5 4 4 5 6 6 7 7 5 3 4 5 3 1 2 2 5 4 3 3
9 11 15 16 17 17 15 13 13 11 10 9 7 5 4 4 2 1 2 2 3 3 4 4 4 3 5 5 6 7 7 6 4 3 3 2 2 1 2 6 4 2 2
9 11 14 17 18 17 15 14 13 11 10 8 7 5 5 3 2 1 2 2 3 4 5 4 3 3 4 4 5 5 5 5 4 5 4 3 1 3 3 6 7 5 2
11 13 15 16 17 15 15 14 13 10 10 8 7 5 5 4 3 4 3 3 5 5 5 4 2 4 4 4 5 4 5 5 5 4 4 3 5 3 4 6 8 7 5
13 14 16 15 14 14 13 12 11 11 9 7 6 5 5 5 5 5 5 5 6 5 4 4 2 3 4 4 4 4 4 4 3 2 5 5 4 5 4 4 5 5 7
13 14 15 14 14 12 12 12 10 9 8 7 6 6 6 6 5 5 5 5 6 5 4 3 3 2 5 5 4 4 4 4 4 3 5 5 8 5 6 6 7 8 9
14 15 15 15 14 13 13 11 9 8 8 7 6 6 6 6 6 5 5 5 6 5 4 4 4 4 5 5 4 4 4 5 5 6 6 7 7 7 10 7 10 9 9
15 15 15 15 14 14 13 11 9 8 7 7 6 6 6 6 6 6 6 5 6 6 5 4 5 5 5 6 5 6 5 6 6 7 7 8 9 11 9 9 9 9 8
17 17 16 15 14 14 13 11 9 7 7 7 6 7 6 6 6 6 6 6 6 6 6 5 5 6 6 6 7 7 6 6 7 7 7 9 10 12 12 9 12 11 10
17 18 17 15 15 14 12 11 9 9 8 8 7 7 7 6 7 7 6 6 7 6 6 6 6 6 5 5 7 7 7 7 8 7 8 8 9 11 9 9 9 11 9
17 18 18 16 15 15 13 11 10 10 9 8 8 8 8 8 9 8 7 7 7 6 6 7 7 7 5 7 9 7 7 7 7 8 8 10 11 11 13 12 11 8 12
20 21 20 18 16 15 13 12 11 10 10 9 9 8 9 9 9 9 8 7 6 5 5 5 5 6 6 5 8 6 6 7 6 9 9 8 8 12 13 14 14 13 13
19 19 18 17 16 15 14 12 12 11 11 10 10 9 9 9 9 9 8 6 5 6 5 5 5 5 5 4 7 5 7 6 6 9 12 9 11 12 13 14 13 11 10
21 19 18 18 16 16 15 14 13 11 11 11 11 11 11 10 9 9 7 5 6 6 4 4 6 7 5 4 8 8 6 6 7 9 10 9 12 9 10 12 12 10 7
17 19 19 17 16 16 15 15 14 13 12 12 12 12 12 11 10 9 8 5 6 6 4 5 6 8 8 4 5 7 7 8 5 9 10 4 11 9 4 7 6 8 7
14 19 19 17 17 17 16 16 14 14 13 12 12 11 10 11 11 10 7 7 7 7 6 7 5 7 9 6 3 7 5 6 9 7 8 5 9 8 6 5 5 5 8
18 20 19 17 17 17 17 17 16 14 13 12 12 12 10 8 9 10 8 8 8 8 7 7 6 5 6 6 4 3 5 7 8 9 7 8 8 7 5 3 8 10 8
16 16 19 19 17 17 18 18 16 14 13 12 13 12 11 9 9 10 9 8 8 7 7 6 5 5 5 6 8 6 7 4 6 4 7 11 6 7 5 6 8 8 5
17 17 18 20 19 18 18 18 16 16 14 13 12 12 12 10 9 8 8 8 8 7 7 7 7 6 5 5 6 6 5 6 5 7 5 6 6 5 6 5 5 3 4
15 18 19 18 20 20 19 17 17 17 15 14 12 12 10 12 10 9 7 8 9 9 8 7 8 8 8 8 9 9 8 7 7 8 6 5 5 5 5 4 5 4 5
16 16 17 15 18 20 20 19 18 18 16 14 12 11 11 11 10 10 7 7 3 7 2 4 8 8 3 13 13 10 9 12 15 5 6 6 7 7 7 6 6 6 6
Wind_Direction
285 310 262 184 170 171 167 160 153 157 153 153 159 187 220 231 227 235 242 232 220 211 214 219 210 205 216 221 217 225 225 214 197 187 180 172 217 211 214 213 215 234 250
281 256 166 183 178 170 165 154 153 155 161 156 151 152 187 216 251 240 242 222 217 214 214 205 205 201 210 208 210 213 214 214 197 192 162 163 160 152 168 119 177 242 260
282 217 163 171 183 168 161 152 150 156 156 146 135 134 185 218 220 204 195 212 216 208 215 201 194 193 209 217 211 212 208 196 202 217 178 165 184 161 159 120 123 218 201
241 164 152 167 168 160 152 148 147 151 152 154 161 176 206 227 168 199 143 148 168 173 198 194 189 205 204 209 204 203 209 215 191 198 232 193 130 179 162 138 175 183 174
202 159 156 157 155 154 149 147 145 150 152 159 166 179 193 181 152 157 156 140 136 152 167 180 187 193 204 202 198 195 214 221 202 203 179 196 153 164 142 159 172 94 105
112 133 144 146 148 150 147 145 149 153 151 157 170 185 189 161 169 174 186 179 161 130 183 158 166 182 202 206 196 201 208 227 247 206 210 190 146 166 175 139 135 116 98
135 150 152 150 149 153 151 151 157 153 157 167 177 179 159 152 167 171 197 183 156 182 158 155 167 197 208 190 187 191 197 213 236 222 211 147 157 88 243 136 137 125 80
147 152 152 150 152 154 154 159 160 152 167 174 172 164 140 139 133 143 100 124 157 161 138 141 156 123 174 192 172 183 187 190 216 216 177 143 36 280 225 168 147 132 93
153 150 156 157 156 158 164 161 157 160 167 166 164 155 146 142 139 99 113 145 140 137 133 128 125 145 131 150 165 162 177 195 212 199 158 137 181 214 187 172 157 152 129
150 158 164 161 159 163 161 155 161 166 163 169 167 159 153 156 134 122 141 147 136 136 135 132 117 81 90 97 125 131 167 186 182 170 166 157 171 160 149 107 132 101 95
155 164 165 161 157 158 160 157 161 157 161 170 166 161 158 162 140 135 145 147 140 134 147 151 153 122 102 96 101 118 146 167 142 125 104 128 157 137 130 113 106 86 102
159 165 166 158 159 163 163 161 157 168 163 163 166 166 158 162 151 147 151 158 144 142 157 167 155 139 113 96 99 86 122 127 118 113 113 114 123 115 121 107 104 104 110
157 166 167 164 166 167 167 160 164 168 161 161 168 152 155 161 157 150 159 152 148 146 155 168 155 136 116 106 96 99 100 113 122 128 125 129 126 132 130 119 112 109 113
162 166 168 168 171 171 170 163 165 169 161 162 168 150 154 149 148 148 157 156 146 147 151 151 142 129 118 109 112 107 99 103 108 106 123 134 139 139 130 124 123 122 125
167 170 169 174 172 169 172 166 166 168 161 156 158 139 135 128 132 137 145 142 134 134 140 143 139 129 120 122 117 112 105 107 110 116 112 122 122 110 115 126 125 127 121
168 169 175 177 174 171 175 165 166 161 162 157 151 141 133 135 135 136 136 133 129 134 135 141 145 140 119 126 128 125 119 108 115 110 105 109 104 103 102 97 100 134 132
171 175 179 179 176 175 173 170 168 159 162 162 154 148 141 140 142 141 137 134 133 137 135 135 144 140 124 155 133 130 119 110 116 118 120 108 117 132 119 101 104 95 86
172 178 179 179 178 173 175 166 166 166 164 168 161 154 148 145 145 149 142 141 140 143 132 129 137 130 115 129 136 140 106 110 125 126 124 124 130 127 133 132 130 127 135
177 176 175 174 171 173 174 168 172 171 170 172 169 165 157 153 156 152 146 139 143 141 147 115 129 130 119 127 139 132 115 113 135 132 129 117 119 114 126 129 129 131 127
170 169 171 171 172 176 172 169 175 177 180 177 176 173 170 167 168 158 149 136 136 136 137 119 125 122 130 164 145 148 141 134 122 110 121 85 110 103 90 115 139 142 142
189 165 167 173 177 170 173 176 177 185 183 176 176 175 175 178 173 159 152 146 137 129 125 116 115 134 139 158 149 127 118 127 125 128 149 125 113 118 92 70 117 111 135
177 178 168 175 174 172 176 180 184 184 180 173 175 176 175 179 170 167 154 148 145 136 133 133 136 137 144 133 163 180 146 153 144 149 142 133 139 151 123 118 119 118 132
183 187 174 171 175 177 181 184 187 179 176 175 175 175 174 175 176 174 165 157 162 156 156 155 146 144 149 150 135 141 149 126 148 142 92 95 118 121 124 105 137 156 151
188 177 188 174 177 181 186 188 178 178 178 178 179 175 175 174 176 180 179 175 176 173 172 170 159 152 157 162 160 159 144 123 100 116 89 85 95 65 101 142 164 179 174
193 180 190 185 180 180 185 182 181 178 180 180 177 179 182 183 175 188 182 191 192 186 180 186 178 171 174 178 173 169 171 170 143 134 143 153 163 164 163 165 167 173 175
192 186 187 189 184 184 183 180 181 181 177 182 179 180 182 185 186 179 176 54 4 202 160 164 190 189 135 147 165 168 141 136 155 164 175 183 190 194 188 189 182 189 189